Location: Eisingen in Unterfranken
(49.7591°N, 9.8347°E)
Time: 08:07:57
(UTC+01:00)

Envisat - Pass Details

Date: 06 December 2022
Orbit: 763 x 765 km, 98.2° (Epoch: 04 February)

Event Time Altitude Azimuth Distance (km) Brightness Sun altitude
Rises 05:06:32 0° 11° (N) 3,247 6.3 -27.3°
Reaches altitude 10° 05:08:52 10° 8° (N) 2,316 5.5 -26.9°
Enters shadow 05:11:10 27° 1° (N) 1,452 4.4 -26.6°
